Regional Weather Roundup
Issued by NWS Jackson, KY

Home | Current Version | Previous Version | Graphics & Text | Print | Product List | Glossary On
Versions: 1 2 3 4 5 6 7 8 9 10 11 12 13 14 15 16 17 18 19 20 21 22 23 24 25 26 27 28 29 30 31 32 33 34 35 36 37 38 39 40 41 42 43 44 45 46 47 48 49 50
000
ASUS43 KJKL 010710
RWRJKL

EAST KENTUCKY HOURLY WEATHER ROUNDUP
NATIONAL WEATHER SERVICE JACKSON KY
300 AM EDT TUE SEP 01 2015

NOTE: "FAIR" INDICATES FEW OR NO CLOUDS BELOW 12,000 FEET WITH
NO SIGNIFICANT WEATHER AND/OR OBSTRUCTIONS TO VISIBILITY.

* THESE REPORTS ARE NOT UNDER NWS QUALITY CONTROL AND MAY NOT
  REPORT WEATHER SUCH AS PRECIPITATION AND FOG.

KYZ079-080-083-085-087-088-110-112-115-119-120-010800
...EASTERN KENTUCKY...

CITY           SKY/WX    TMP DP  RH WIND       PRES   REMARKS
JACKSON        MOCLDY    69  65  86 CALM      30.14F
LONDON         CLEAR     67  62  84 CALM      30.14F
SOMERSET*      CLEAR     64  64 100 CALM      30.15R
MONTICELLO*    FOG       63  63 100 CALM      30.16S VSB 1/2
WILLIAMSBURG*  CLOUDY    63  63 100 CALM      30.14
MIDDLESBORO*   CLEAR     64  64  98 CALM      30.15F
HARLAN APT*      N/A     66  66 100 MISG      30.16F
HAZARD APT*    PTSUNNY   68  68 100 CALM      30.14F
BLACK MTN*       N/A    N/A N/A N/A CALM        N/A
PIKEVILLE APT* MOCLDY    68  68 100 S3        30.15S FOG
BIG SANDY*     SUNNY     67  66  98 CALM      30.14S
MOREHEAD APT*  SUNNY     66  66 100 CALM      30.15S FOG
$$

KYZ035-036-041-042-044-050-067-078-099-010800
...CENTRAL KENTUCKY...

CITY           SKY/WX    TMP DP  RH WIND       PRES   REMARKS
MT STERLING*   CLEAR     63  63 100 CALM      30.15S FOG
FLEMING/MASON* CLEAR     68  64  88 S5        30.14F
DANVILLE*      CLEAR     63  63 100 CALM      30.14F
RICHMOND*      CLEAR     64  63  94 CALM      30.13S
LEXINGTON      CLEAR     67  64  90 S3        30.13F
FRANKFORT      CLEAR     66  63  90 CALM      30.11F
$$

KYZ091>093-OHZ055-061-077-WVZ005-015-034-035-042-010800
...SOUTHERN OHIO/WEST VIRGINIA...

CITY           SKY/WX    TMP DP  RH WIND       PRES   REMARKS
COVINGTON      CLEAR     68  65  90 CALM      30.11F
COLUMBUS       CLEAR     70  68  93 CALM      30.10S
DAYTON         PTCLDY    71  68  90 SW5       30.12F
WILMINGTON     CLEAR     66  64  93 CALM      30.12S FOG
HUNTINGTON     CLEAR     67  67 100 CALM      30.11F FOG
CHARLESTON     PTCLDY    67  65  93 CALM      30.12F
PINEVILLE*     CLOUDY    65  65 100 MISG      30.21F FOG
BECKLEY        CLEAR     62  59  90 CALM      30.20S FOG
BLUEFIELD      CLEAR     65  60  84 W5        30.22F
$$

VAZ002-007-008-TNZ017-027-036-066-071-010800
...SOUTHWEST VIRGINIA/EAST TENNESSEE...

CITY           SKY/WX    TMP DP  RH WIND       PRES   REMARKS
WISE*          CLEAR     66  59  77 CALM      30.22F
JONESVILLE*    SUNNY     64  63  94 CALM      30.17F
ABINGDON*      CLEAR     66  62  87 E3        30.18S
BRISTOL        MOCLDY    64  62  93 NE3       30.15S FOG
KNOXVILLE      PTCLDY    68  68 100 CALM      30.11
OAK RIDGE      CLEAR     68  65  90 CALM      30.13F
CROSSVILLE     CLEAR     65  62  90 CALM      30.17F FOG
NASHVILLE      CLEAR     71  65  81 CALM      30.11S
$$

...KEY TO REMARKS...
VSB - VISIBILITY IN MILES
WCI - WIND CHILL INDEX
HX  - HEAT INDEX

$$



USA.gov is the U.S. government's official web portal to all federal, state and local government web resources and services.